Regional & State Weather Roundups


258 
ASUS43 KMPX 150601
RWRMN 
WEATHER ROUNDUP FOR MINNESOTA
NATIONAL WEATHER SERVICE TWIN CITIES/CHANHASSEN MN
1200 AM CST FRI DEC 15 2017
NOTE: "FAIR" INDICATES FEW OR NO CLOUDS BELOW 12,000 FEET WITH NO
SIGNIFICANT WEATHER AND/OR OBSTRUCTIONS TO VISIBILITY. N/A MEANS
CURRENT SKY AND/OR WEATHER CONDITIONS ARE NOT AVAILABLE.
MNZ060>063-068>070-150700-
   Twin Cities Metro   
  
CITY           SKY/WX    TMP DP  RH WIND       PRES   REMARKS
TWIN CITIES    CLOUDY    23  16  74 W10       29.98F WCI  12          
6HR MIN TEMP:  22; 6HR MAX TEMP:  24; 6HR PCP: TRACE;                
ST PAUL        CLOUDY    23  15  71 W15       29.98F WCI  10          
CRYSTAL        CLOUDY    22  13  68 W10       29.97F WCI  11          
BLAINE         CLOUDY    23  16  74 W14       29.96S WCI  11          
LAKEVILLE      CLOUDY    21  18  86 NW12      29.98F WCI   9          
EDEN PRAIRIE   CLOUDY    23  16  74 W9        29.97F WCI  13          
6HR MIN TEMP:  23; 6HR MAX TEMP:  24;                                
SOUTH ST PAUL  CLOUDY    24  15  69 W10G16    29.97F WCI  13          
LAKE ELMO      CLOUDY    23  16  74 W10       29.97F WCI  12          
$$
MNZ001>005-007-008-013>017-022>024-027-028-150700-
   Northwest Minnesota   
  
CITY           SKY/WX    TMP DP  RH WIND       PRES   REMARKS
BEMIDJI        FLURRIES  14  11  88 NW14      29.91F WCI  -1          
HALLOCK        CLOUDY    14  12  92 NW6       29.99S WCI   5          
ROSEAU         CLOUDY    12   9  85 NW15      29.95F WCI  -4          
WARROAD        FLURRIES  10   7  85 NW10      29.95F WCI  -3          
CROOKSTON      CLOUDY    19  18  93 NW6       29.99F WCI  11          
FOSSTON        CLOUDY    14  12  92 NW6       29.95F WCI   5          
DETROIT LAKES  CLOUDY    19  18  93 CALM      29.95F                  
MOORHEAD       CLOUDY    19  18  93 CALM      29.98F                  
PARK RAPIDS    FLURRIES  11   7  84 W6        29.92F WCI   1          
MAHNOMEN       CLOUDY    17  15  93 NW3       29.96F                  
$$
MNZ006-009>011-018-025>026-150700-
   North Central Minnesota   
  
CITY           SKY/WX    TMP DP  RH WIND       PRES   REMARKS
BAUDETTE       FLURRIES   9   5  84 NW14      29.92F WCI  -7          
FLAG ISLAND    FLURRIES  10   7  85 NW15      29.92F WCI  -6          
INTL FALLS     CLOUDY    10   5  80 NW7       29.88F HAZE    WCI  -1  
6HR MIN TEMP:  10; 6HR MAX TEMP:  12; 6HR PCP:  0.01;                
WASKISH        FLURRIES  12   9  85 NW10      29.93S WCI  -1          
BIG FORK       LGT SNOW  12   9  85 NW3       29.89S                  
LONGVILLE      FLURRIES  14  10  85 NW8       29.92F WCI   3          
GRAND RAPIDS   FLURRIES  13   9  84 NW14      29.91F WCI  -2          
CRANE LAKE     LGT SNOW  10   7  85 CALM      29.89F                  
ORR            FLURRIES  10   5  79 NW8       29.84F WCI  -1          
COOK           LGT SNOW  10   7  85 W10       29.87S WCI  -3          
WALKER         FLURRIES  13  10  86 W7        29.92F WCI   3          
$$
MNZ012-019>021-037-150700-
   Northeast Minnesota   
  
CITY           SKY/WX    TMP DP  RH WIND       PRES   REMARKS
DULUTH         FLURRIES  11   8  88 NW10      29.85F WCI  -3          
6HR MIN TEMP:  11; 6HR MAX TEMP:  15; 6HR PCP: TRACE;                
ELY            FLURRIES   9   5  85 W6        29.83F WCI  -1          
HIBBING        FLURRIES  11   6  81 NW13      29.87F WCI  -4          
EVELETH        FLURRIES  12   6  76 W8        29.87F WCI   1          
DULUTH HARBOR  CLOUDY    18  10  73 W10       29.93S WCI   6          
TWO HARBORS    FLURRIES  16   9  73 NW8       29.84S WCI   5          
SILVER BAY     CLOUDY    12   7  79 NW7       29.82F WCI   2          
GRAND MARAIS     N/A     16   8  71 VRB6G21   29.83F WCI   7          
G MARAIS ARPRT FLURRIES   7   1  78 NW6       29.75F WCI  -3          
$$
MNZ029>031-032-039>041-046>048-054>057-064-150700-
   West Central Minnesota   
  
CITY           SKY/WX    TMP DP  RH WIND       PRES   REMARKS
FERGUS FALLS   CLOUDY    23  23 100 CALM      29.98F                  
WHEATON        FLURRIES  30  27  86 W7        29.98F WCI  23          
MORRIS         LGT SNOW  27  25  93 W6        29.95F WCI  20          
ALEXANDRIA     CLOUDY    22  20  92 W3        29.95F                  
ELBOW LAKE     CLOUDY    23  22  95 CALM      29.96F                  
WADENA         FLURRIES  16  14  93 NW3       29.93F                  
GLENWOOD       CLEAR     21  21 100 W6        29.95F WCI  14          
APPLETON       FLURRIES  28  25  86 W8        29.98F WCI  20          
BENSON         FLURRIES  27  21  80 W5        29.98F WCI  21          
ORTONVILLE     LGT SNOW  30  25  80 W7        29.97F WCI  23          
MADISON        FLURRIES  32  27  80 W12       29.99F WCI  23          
WILLMAR        CLOUDY    25  21  86 W3        29.99F                  
$$
MNZ033>034-036-042>043-049>051-058-059-150700-
   Central Minnesota     
  
CITY           SKY/WX    TMP DP  RH WIND       PRES   REMARKS
ST CLOUD       CLOUDY    21  17  84 W9        29.96F WCI  11          
6HR MIN TEMP:  20; 6HR MAX TEMP:  22; 6HR PCP: TRACE;                
SAUK CENTRE    FLURRIES  21  19  91 W5        29.96F WCI  14          
PAYNESVILLE    FLURRIES  22  21  95 SW5       29.97F WCI  16          
AITKIN         CLOUDY    14   9  79 W3        29.91F                  
PINE RIVER     LGT SNOW  12   9  85 NW3       29.96F                  
BRAINERD       CLOUDY    17  10  74 NW8       29.94F WCI   7          
STAPLES        LGT SNOW  16  12  86 NW6       29.94F WCI   7          
LONG PRAIRIE   CLOUDY    21  19  93 SW3       29.95F                  
LITTLE FALLS   FLURRIES  19  12  73 W5        29.96F WCI  13          
LITCHFIELD     FLURRIES  25  21  86 CALM      29.98F                  
BUFFALO        CLOUDY    22  17  82 W7        29.99S WCI  13          
MAPLE LAKE     CLOUDY    23  19  87 W5        29.99S WCI  17          
HUTCHINSON     CLOUDY    24  21  89 W6        30.00F WCI  17          
$$
MNZ037-044-045-052-053-150700-
   East Central Minnesota   
  
CITY           SKY/WX    TMP DP  RH WIND       PRES   REMARKS
PRINCETON      CLOUDY    21  16  79 W8        29.96S WCI  12          
MORA           CLOUDY    19  12  73 NW8       29.95F WCI   9          
CAMBRIDGE      CLOUDY    21  12  68 W9G16     29.95S WCI  11          
RUSH CITY      CLOUDY    19  13  77 NW6       29.95S WCI  11          
MOOSE LAKE     FLURRIES  18  10  73 NW5       29.90S WCI  11          
HINCKLEY       FLURRIES  19  14  79 NW7       29.93S WCI  10          
CLOQUET        CLOUDY    12   7  79 W8        29.88S WCI   1          
MCGREGOR       CLOUDY    16  10  79 W5        29.91F WCI   9          
$$
MNZ071>073-080-081-089-090-097-098-150700-
   Southwest Minnesota   
  
CITY           SKY/WX    TMP DP  RH WIND       PRES   REMARKS
MONTEVIDEO     CLOUDY    28  23  80 W5        29.99F WCI  23          
GRANITE FALLS  CLOUDY    29  24  82 SW10      30.02F WCI  20          
CANBY          FLURRIES  31  27  84 SW13      30.01F WCI  21          
MARSHALL       CLOUDY    28  24  85 W13       30.01F WCI  17          
REDWOOD FALLS  CLOUDY    27  23  85 SW8       30.00F WCI  19          
OLIVIA         PTCLDY    27  23  86 SW5       29.99F WCI  21          
PIPESTONE      CLOUDY    25  21  86 W9        30.02F WCI  15          
WINDOM           N/A     27  14  59 SW8       30.01F WCI  18          
WORTHINGTON    CLOUDY    25  22  88 W12       30.02F WCI  14          
JACKSON        CLOUDY    27  23  86 MISG      30.02F                  
SLAYTON        CLOUDY    26  23  87 W10       30.03F WCI  16          
$$
MNZ065>067-074>077-082>085-091>093-150700-
   South Central Minnesota  
  
CITY           SKY/WX    TMP DP  RH WIND       PRES   REMARKS
MANKATO        FLURRIES  24  20  84 W12       30.02S WCI  13          
NEW ULM        FLURRIES  25  21  86 W3        30.01F                  
ST JAMES       CLOUDY    27  21  80 W8        30.02F WCI  18          
FAIRMONT       CLOUDY    25  21  85 W10       30.03F WCI  15          
GLENCOE        CLOUDY    24  21  87 W7        29.99F WCI  16          
FARIBAULT      FLURRIES  25  18  74 W10G16    29.99S WCI  15          
OWATONNA       CLOUDY    25  19  80 W12       29.98F WCI  14          
WASECA         LGT SNOW  25  19  80 W14       30.02S WCI  13          
$$
MNZ078>079-086>088-094>096-150700-
   Southeast Minnesota   
  
CITY           SKY/WX    TMP DP  RH WIND       PRES   REMARKS
ROCHESTER      CLOUDY    22  17  81 W14       29.96F WCI   9          
6HR MIN TEMP:  21; 6HR MAX TEMP:  22;                                
RED WING       CLOUDY    25  14  63 W8        29.96F WCI  16          
STANTON        CLOUDY    25  19  79 W10       29.97F WCI  14          
DODGE CENTER   FLURRIES  21  18  86 W13       29.96F WCI   9          
WINONA         CLOUDY    25  18  74 NW9       29.98F WCI  15          
PRESTON        CLOUDY    22  17  81 NW14      29.96F WCI   9          
$$
ABBREVIATIONS USED IN REMARKS
   TC - TEMPERATURES IN CELSIUS
  WCI - WIND CHILL INDEX
   HX - HEAT INDEX
  VSB - VISIBILITY 
$$